DW6963 Weather Reports


Display with metric or nautical units.
time (UTC)temp
F
wind
direction
speed
MPH
gust
MPH
rain 1hr
in
rain 24hr
in
rain mn
in
humidity
%
barometer
mb
20260504191912 67 0 0.0 0.0 0.00 0.00 0.00 62 1009.1
20260504191413 67 0 0.0 0.0 0.00 0.00 0.00 62 1009.6
20260504190912 66 0 0.0 0.0 0.00 0.00 0.00 63 1009.3
20260504190413 67 0 0.0 0.0 0.00 0.00 0.00 64 1009.3
20260504185912 67 0 0.0 0.0 0.00 0.00 0.00 61 1009.2
20260504185412 67 0 0.0 0.0 0.00 0.00 0.00 60 1009.1
20260504184912 68 0 0.0 0.0 0.00 0.00 0.00 59 1009.0
20260504184412 68 0 0.0 0.0 0.00 0.00 0.00 59 1008.6
20260504183913 69 0 0.0 0.0 0.00 0.00 0.00 57 1008.5
20260504183413 70 0 0.0 0.0 0.00 0.00 0.00 58 1008.5
20260504182913 70 0 0.0 0.0 0.00 0.00 0.00 60 1008.3
20260504182412 69 0 0.0 0.0 0.00 0.00 0.00 62 1008.2
20260504181413 68 0 0.0 0.0 0.00 0.00 0.00 61 1008.1
20260504180913 68 0 0.0 0.0 0.00 0.00 0.00 59 1008.4
20260504180412 68 0 0.0 0.0 0.00 0.00 0.00 59 1008.3
20260504175912 68 0 0.0 0.0 0.00 0.00 0.00 61 1008.4
20260504175412 68 0 0.0 0.0 0.00 0.00 0.00 60 1008.5
20260504174912 67 0 0.0 0.0 0.00 0.00 0.00 60 1008.3
20260504174413 67 0 0.0 0.0 0.00 0.00 0.00 60 1008.2
20260504173413 67 0 0.0 0.0 0.00 0.00 0.00 61 1008.3
20260504172412 66 0 0.0 0.0 0.00 0.00 0.00 63 1008.4
20260504171912 66 0 0.0 0.0 0.00 0.00 0.00 63 1008.5
20260504170912 65 0 0.0 0.0 0.00 0.00 0.00 62 1008.6
20260504170412 65 0 0.0 0.0 0.00 0.00 0.00 64 1008.6
20260504160413 65 0 0.0 0.0 0.00 0.00 0.00 63 1009.2
20260504150913 62 0 0.0 0.0 0.00 0.00 0.00 67 1009.2
20260504150412 62 0 0.0 0.0 0.00 0.00 0.00 67 1009.2
20260504140913 59 0 0.0 0.0 0.00 0.00 0.00 68 1009.7
20260504130412 56 0 0.0 0.0 0.00 0.00 0.00 68 1010.1
20260504110412 51 0 0.0 0.0 0.00 0.00 0.00 69 1010.0
20260504100412 50 0 0.0 0.0 0.00 0.00 0.00 67 1010.0
20260504081912 52 0 0.0 0.0 0.00 0.00 0.00 64 1010.8
20260504081413 52 0 0.0 0.0 0.00 0.00 0.00 64 1010.8
20260504080912 52 0 0.0 0.0 0.00 0.00 0.00 64 1010.8
20260504050412 53 0 0.0 0.0 0.00 0.00 0.00 59 1012.5
20260504045913 53 0 0.0 0.0 0.00 0.00 0.00 59 1012.5
20260504045413 54 0 0.0 0.0 0.00 0.00 0.00 59 1012.5
20260504044912 54 0 0.0 0.0 0.00 0.00 0.00 58 1012.6
20260504043912 54 0 0.0 0.0 0.00 0.00 0.00 58 1012.7
20260504043413 54 0 0.0 0.0 0.00 0.00 0.00 58 1012.7
20260504042912 54 0 0.0 0.0 0.00 0.00 0.00 58 1012.7
20260504042413 54 0 0.0 0.0 0.00 0.00 0.00 58 1012.8
20260504041912 54 0 0.0 0.0 0.00 0.00 0.00 58 1012.8
20260504041413 54 0 0.0 0.0 0.00 0.00 0.00 57 1013.0
20260504040912 54 0 0.0 0.0 0.00 0.00 0.00 58 1013.0
20260504040416 54 0 0.0 0.0 0.00 0.00 0.00 58 1013.1
20260504035913 54 0 0.0 0.0 0.00 0.00 0.00 58 1013.1
20260504035413 54 0 0.0 0.0 0.00 0.00 0.00 58 1013.2
20260504034912 54 0 0.0 0.0 0.00 0.00 0.00 58 1013.3
20260504034413 54 0 0.0 0.0 0.00 0.00 0.00 57 1013.2
20260504033912 54 0 0.0 0.0 0.00 0.00 0.00 57 1013.2
20260504033413 54 0 0.0 0.0 0.00 0.00 0.00 57 1013.2
20260504032912 54 0 0.0 0.0 0.00 0.00 0.00 56 1013.2
20260504032413 54 0 0.0 0.0 0.00 0.00 0.00 55 1013.3
20260504031912 54 0 0.0 0.0 0.00 0.00 0.00 56 1013.3
20260504031413 54 0 0.0 0.0 0.00 0.00 0.00 55 1013.4
20260504030912 54 0 0.0 0.0 0.00 0.00 0.00 55 1013.4
20260504025912 54 0 0.0 0.0 0.00 0.00 0.00 55 1013.5
20260504025413 55 0 0.0 0.0 0.00 0.00 0.00 54 1013.6
20260504024912 55 0 0.0 0.0 0.00 0.00 0.00 54 1013.7
20260504024412 55 0 0.0 0.0 0.00 0.00 0.00 54 1013.5
20260504023912 54 0 0.0 0.0 0.00 0.00 0.00 55 1013.5
20260504023413 54 0 0.0 0.0 0.00 0.00 0.00 56 1013.5
20260504022913 54 0 0.0 0.0 0.00 0.00 0.00 57 1013.6
20260504022412 54 0 0.0 0.0 0.00 0.00 0.00 59 1013.6
20260504021413 54 0 0.0 0.0 0.00 0.00 0.00 58 1013.6
20260504015913 54 0 0.0 0.0 0.00 0.00 0.00 58 1013.5
20260504015413 54 0 0.0 0.0 0.00 0.00 0.00 58 1013.4
20260504014913 54 0 0.0 0.0 0.00 0.00 0.00 57 1013.4
20260504014413 54 0 0.0 0.0 0.00 0.00 0.00 57 1013.4
20260504013913 54 0 0.0 0.0 0.00 0.00 0.00 59 1013.4
20260504013414 54 0 0.0 0.0 0.00 0.00 0.00 58 1013.4
20260504012912 54 0 0.0 0.0 0.00 0.00 0.00 57 1013.3
20260504012413 55 0 0.0 0.0 0.00 0.00 0.00 56 1013.4
20260504011913 55 0 0.0 0.0 0.00 0.00 0.00 56 1013.5
20260504011413 55 0 0.0 0.0 0.00 0.00 0.00 54 1013.5
20260504010913 55 0 0.0 0.0 0.00 0.00 0.00 55 1013.6
20260504010413 56 0 0.0 0.0 0.00 0.00 0.00 54 1013.6
20260504005913 56 0 0.0 0.0 0.00 0.00 0.00 51 1013.6
20260504005413 56 0 0.0 0.0 0.00 0.00 0.00 51 1013.5
20260504004413 56 0 0.0 0.0 0.00 0.00 0.00 49 1013.4
20260504003913 56 0 0.0 0.0 0.00 0.00 0.00 47 1013.3
20260504003413 56 0 0.0 0.0 0.00 0.00 0.00 49 1013.3
20260504002912 56 0 0.0 0.0 0.00 0.00 0.00 48 1013.2
20260504002413 56 0 0.0 0.0 0.00 0.00 0.00 49 1013.1
20260504001913 56 0 0.0 0.0 0.00 0.00 0.00 47 1013.2
20260504001413 57 0 0.0 0.0 0.00 0.00 0.00 47 1012.9
20260504000913 57 0 0.0 0.0 0.00 0.00 0.00 45 1012.9
20260504000413 57 0 0.0 0.0 0.00 0.00 0.00 44 1012.8
20260503235912 57 0 0.0 0.0 0.00 0.00 0.00 44 1012.7
20260503235413 58 0 0.0 0.0 0.00 0.00 0.00 45 1012.7
20260503234913 58 0 0.0 0.0 0.00 0.00 0.00 44 1012.9
20260503234413 58 0 0.0 0.0 0.00 0.00 0.00 45 1013.0
20260503232913 57 0 0.0 0.0 0.00 0.00 0.00 44 1013.3
20260503231913 55 0 0.0 0.0 0.00 0.00 0.00 58 1013.6
20260503231413 55 0 0.0 0.0 0.00 0.00 0.00 60 1013.7
20260503225912 55 0 0.0 0.0 0.00 0.00 0.00 60 1014.0
20260503225413 55 0 0.0 0.0 0.00 0.00 0.00 59 1014.1
20260503224913 55 0 0.0 0.0 0.00 0.00 0.00 58 1014.1
20260503224413 56 0 0.0 0.0 0.00 0.00 0.00 58 1014.2
20260503223912 56 0 0.0 0.0 0.00 0.00 0.00 57 1014.4
20260503223413 56 0 0.0 0.0 0.00 0.00 0.00 57 1014.5
20260503222912 56 0 0.0 0.0 0.00 0.00 0.00 56 1014.5
20260503222413 56 0 0.0 0.0 0.00 0.00 0.00 56 1014.6
20260503221413 56 0 0.0 0.0 0.00 0.00 0.00 55 1014.4
20260503220913 56 0 0.0 0.0 0.00 0.00 0.00 53 1014.5
20260503220413 56 0 0.0 0.0 0.00 0.00 0.00 54 1014.6
20260503215913 57 0 0.0 0.0 0.00 0.00 0.00 53 1014.6
20260503215413 56 0 0.0 0.0 0.00 0.00 0.00 51 1014.7
20260503214913 56 0 0.0 0.0 0.00 0.00 0.00 48 1014.6
20260503214412 56 0 0.0 0.0 0.00 0.00 0.00 46 1014.6
20260503213913 55 0 0.0 0.0 0.00 0.00 0.00 47 1014.7
20260503213412 55 0 0.0 0.0 0.00 0.00 0.00 47 1014.7
20260503212913 55 0 0.0 0.0 0.00 0.00 0.00 48 1014.9
20260503212412 55 0 0.0 0.0 0.00 0.00 0.00 51 1015.0
20260503211913 55 0 0.0 0.0 0.00 0.00 0.00 48 1015.1
20260503211412 55 0 0.0 0.0 0.00 0.00 0.00 49 1015.4
20260503210913 56 0 0.0 0.0 0.00 0.00 0.00 48 1015.7
20260503210412 56 0 0.0 0.0 0.00 0.00 0.00 45 1015.9
20260503205913 58 0 0.0 0.0 0.00 0.00 0.00 42 1015.7
20260503205412 58 0 0.0 0.0 0.00 0.00 0.00 41 1015.5
20260503204913 58 0 0.0 0.0 0.00 0.00 0.00 40 1015.4
20260503203913 58 0 0.0 0.0 0.00 0.00 0.00 40 1015.3
20260503203413 59 0 0.0 0.0 0.00 0.00 0.00 39 1015.3
20260503202912 59 0 0.0 0.0 0.00 0.00 0.00 39 1015.3
20260503202413 59 0 0.0 0.0 0.00 0.00 0.00 38 1015.1
20260503201913 60 0 0.0 0.0 0.00 0.00 0.00 39 1015.1
20260503201413 60 0 0.0 0.0 0.00 0.00 0.00 40 1015.1
20260503200913 60 0 0.0 0.0 0.00 0.00 0.00 38 1015.2
20260503200413 60 0 0.0 0.0 0.00 0.00 0.00 40 1015.2
20260503195413 60 0 0.0 0.0 0.00 0.00 0.00 39 1015.4
20260503194913 60 0 0.0 0.0 0.00 0.00 0.00 39 1015.6
20260503194413 60 0 0.0 0.0 0.00 0.00 0.00 38 1015.7
20260503193913 60 0 0.0 0.0 0.00 0.00 0.00 42 1015.8
20260503192912 59 0 0.0 0.0 0.00 0.00 0.00 40 1016.0
20260503192413 60 0 0.0 0.0 0.00 0.00 0.00 38 1015.9